Regional Weather Roundup
Issued by NWS

Home | Current Version | Previous Version | Graphics & Text | Print | Product List | Glossary On
Versions: 1 2 3 4 5 6 7 8 9 10 11 12 13 14 15 16 17 18 19 20 21 22 23 24 25 26 27 28 29 30 31 32 33 34 35 36 37 38 39 40 41 42 43 44 45 46 47 48 49 50
000
ASUS43 KTOP 290408
RWRKS

WEATHER ROUNDUP FOR KANSAS
NATIONAL WEATHER SERVICE GOODLAND KS
1100 PM CDT FRI AUG 28 2015

NOTE:  "FAIR" INDICATES FEW OR NO CLOUDS BELOW 12,000 FEET WITH NO
SIGNIFICANT WEATHER AND/OR OBSTRUCTIONS TO VISIBILITY.

KSZ001>006-013>018-027>032-041>047-290500-
NORTHWEST KANSAS

CITY           SKY/WX    TMP DP  RH WIND       PRES   REMARKS
GOODLAND       CLEAR     67  53  61 SE6       30.14R
HAYS           CLEAR     72  57  60 NE9       30.05R
HILL CITY      CLEAR     67  61  81 NE7       30.07R
RUSSELL        CLEAR     68  62  81 NE7       30.02R
$$

KSZ061>065-074>080-084>089-290500-
SOUTHWEST KANSAS

CITY           SKY/WX    TMP DP  RH WIND       PRES   REMARKS
DODGE CITY     CLEAR     68  60  75 NE8       30.07R
ELKHART          N/A     76  57  51 SW6         N/A
GARDEN CITY    CLEAR     72  58  61 NE8       30.08R
GREAT BEND     CLEAR     73  63  68 NE10      30.03R
LIBERAL        MOCLDY    73  57  56 SW5       30.07R
PRATT          CLEAR     73  63  68 CALM      30.03R
$$

KSZ066>073-081>083-090>101-290500-
SOUTHEAST KANSAS

CITY           SKY/WX    TMP DP  RH WIND       PRES   REMARKS
CHANUTE        MOCLDY    71  69  93 CALM      29.96R
COFFEYVILLE    CLEAR     71  68  90 S6        29.94S
HUTCHINSON     CLEAR     75  66  73 N7        30.00R
MEDICINE LODGE   N/A     75  67  76 N5        29.98R
NEWTON         CLOUDY    72  63  73 N7        30.01R
PARSONS        PTCLDY    71  69  93 CALM      29.96R
WICHITA INTL   CLEAR     74  65  73 CALM      29.95R
WICHITA JABRA  PTCLDY    69  67  93 NE3       29.96R
WICHITA MCCONL CLEAR     73  66  78 E3        29.96R
$$

KSZ007>012-019>026-033>040-048>060-102>105-290500-
NORTHEAST KANSAS

CITY           SKY/WX    TMP DP  RH WIND       PRES   REMARKS
CONCORDIA      CLEAR     67  63  87 NW6       29.99S
EMPORIA        MOCLDY    72  68  87 SW6       29.96R
LAWRENCE       MOCLDY    71  67  87 S6        29.93S
MANHATTAN      CLEAR     71  66  84 N3        29.97R
MARYSVILLE     CLEAR    N/A N/A N/A N3        29.97S
OLATHE IND     CLOUDY    70  68  93 SE12      29.95S
OLATHE EXE     CLOUDY    70  68  93 S12       29.95R
SALINA         CLEAR     73  65  75 N8        29.99R
TOPEKA BILLARD CLOUDY    72  70  93 CALM      29.93S
TOPEKA FORBES  PTCLDY    73  68  84 CALM      29.93S
$$


USA.gov is the U.S. government's official web portal to all federal, state and local government web resources and services.